GSAT0220 (GALILEO 24)

Last updated on Feb. 23, 2020, 4:52 a.m. UTC

1 43567U 18060D   20053.10075212 -.00000057  00000-0  00000+0 0  9990
2 43567  56.7389  44.2300 0005973 284.3746  75.5669  1.70476076  9832
UTC
Height (km)
Latitude
Longitude
Inclination
Orbital Period
UTC large
Height (km)
Speed (km/s)
/
Latitude / Longitude
Inclination (degrees)
Orbital Period (minutes)
Azimuth
Elevation
Range (km)
Doppler Factor
iOS Compass Heading
iOS Angle

Next 30 passes for location: Hong Kong

Rise time Rise Azimuth (degrees) Set time Set Azimuth (degrees) Duration Max altitude (degrees)

No matching passes for this satellites